Regional Weather Roundup
Issued by NWS Lake Charles, LA

Home | Current Version | Previous Version | Text Only | Print | Product List | Glossary On
Versions: 1 2 3 4 5 6 7 8 9 10 11 12 13 14 15 16 17 18 19 20 21 22 23 24 25 26 27 28 29 30 31 32 33 34 35 36 37 38 39 40 41 42 43 44 45 46 47 48 49 50
649
ASUS44 KLCH 281510
RWRLCH
REGIONAL WEATHER ROUNDUP
NATIONAL WEATHER SERVICE LAKE CHARLES LA
900 AM CST TUE FEB 28 2017

Note: "fair" indicates few or no clouds below 12,000 feet with no
significant weather and/or obstructions to visibility.


ACROSS SOUTHEAST TEXAS

CITY           SKY/WX    TMP DP  RH WIND       PRES   REMARKS
BEAUMONT       CLOUDY    75  68  78 S15       30.05R
BEAUMONT CITY  CLOUDY    73  68  84 S13       30.06R
ORANGE         CLOUDY    73  70  88 S14G20    30.08R
JASPER         PTSUNNY   73  69  86 SE8       30.06S
$$

ACROSS CENTRAL LOUISIANA

CITY           SKY/WX    TMP DP  RH WIND       PRES   REMARKS
LEESVILLE      CLOUDY    73  67  82 S15G24    30.06R
FULLERTON      CLOUDY    74  66  76 S8        30.04S
ALEXANDRIA INT PTSUNNY   73  66  78 S14       30.05S
ESLER FIELD    PTSUNNY   74  67  78 SW14      30.07S
DERIDDER       CLOUDY    73  69  86 S13       30.09R FOG
OAKDALE        CLOUDY    73  67  81 S8        30.08R
OPELOUSAS      CLOUDY    73  66  81 MISG      30.10S
$$

ACROSS SOUTHWEST AND SOUTH CENTRAL LOUISIANA

CITY           SKY/WX    TMP DP  RH WIND       PRES   REMARKS
SULPHUR        CLOUDY    74  69  85 S12       30.08R
LAKE CHARLES   CLOUDY    74  68  81 S12G18    30.07R
CHENNAULT INT  PTSUNNY   72  68  88 S12G17    30.07S
CAMERON PHI    CLOUDY    70  70 100 SE9       30.06S FOG
DEQUINCY       CLOUDY    72  67  84 S9        30.07R
JENNINGS       CLOUDY    73  68  84 S13G20    30.08S
LAFAYETTE      PTSUNNY   76  69  79 S10G20    30.10S
NEW IBERIA     PTSUNNY   75  68  78 S15       30.11S
ABBEVILLE      CLOUDY    72  72 100 S9        30.11R
PATTERSON      PTSUNNY   75  69  81 S14G20    30.12S
SALT POINT       N/A     70  68  93 VRB7      30.11R
$$

SELECTED SITES ACROSS THE REGION

CITY           SKY/WX    TMP DP  RH WIND       PRES   REMARKS
HOUSTON BUSH   CLOUDY    74  67  78 S12G17    30.01R
HOUSTON HOBBY  CLOUDY    73  69  87 S12G20    30.02R
GALVESTON      CLOUDY    73  70  90 SE12      30.04R
COLLEGE STAT   PTSUNNY   74  69  85 S17       29.97R
CONROE         CLOUDY    74  68  81 S18       30.01R
HUNTSVILLE     PTSUNNY   75  67  76 S12G20    29.99R
LUFKIN         CLOUDY    73  67  81 S9        30.01R
SHREVEPORT     CLOUDY    74  70  87 S12G22    29.98S FOG
MONROE         CLOUDY    72  67  84 S12       30.04S
NATCHEZ MS     CLOUDY    72  64  78 S14G21    30.09S
BATON ROUGE    PTSUNNY   76  68  76 S13       30.12R
N.O. INTL ARPT CLOUDY    74  70  87 S13G21    30.14S
SLIDELL        CLOUDY    72  70  93 S13       30.16R
$$

MARINE REPORTS

STATION/POSITION TIME  SKY/WX   TEMP    WIND        PRES    VSBY
                                AIR SEA DIR/SP/G
                 (UTC)          (F)     (DEG/KT/KT) (MB)    (MI)
BUOY 30 S HIGH I 1450            69 67  150/ 12/ 14 1017.1R
WVE H/P(F/S)=  3/ 7

SEA RIM ST PARK  1500            69     140/ 10/ 13 1018.4R
PORT ARTHUR      1442               67  160/  7/  9 1017.9R
SABINE PASS N    1448            69 69  140/ 10/ 15 1019.3R
TEXAS POINT      NOT AVBL
CALCASIEU PASS   1448            69 68  160/  8/ 12   N/A
LK CHARLES BEACH 1448            73 67              1018.6R
MARSH ISLAND     1400            69                   N/A
FRESH WATER LOCK 1448            70 69  130/  9/ 12 1019.9R
AMERADA PASS     1448            73 62  150/  8/ 13 1019.9R
$$




USA.gov is the U.S. government's official web portal to all federal, state and local government web resources and services.